Saguache, CO

10:28 AM MST on February 10, 2016 (GMT -0700)
Saguache

Weather History for K04V - November, 2012

Change the Weather History Date:

Saturday, November 10, 2012

  Actual Average (KALS) Record (KALS)
Temperature  
Mean Temperature 30 °F 32 °F  
Max Temperature 42 °F 50 °F 71 °F (1980)
Min Temperature 19 °F 15 °F -8 °F (1950)
Degree Days  
Heating Degree Days 34 33  
Month to date heating degree days 305  
Since 1 July heating degree days 1415  
Cooling Degree Days 0 0  
Month to date cooling degree days 0  
Year to date cooling degree days 51  
Moisture  
Dew Point 19 °F    
Average Humidity 59    
Maximum Humidity 93    
Minimum Humidity 28    
Precipitation  
Precipitation 0.11 in 0.02 in 0.43 in (2008)
Month to date precipitation 0.17  
Year to date precipitation 6.71  
Snow  
Snow 0.00 in 0.20 in 2.80 in (2008)
Month to date snowfall 1.2  
Since 1 July snowfall 3.3  
Since 1 September snowfall 3.3  
Snow Depth -    
Sea Level Pressure  
Sea Level Pressure 29.68 in    
Wind  
Wind Speed 11 mph (West)    
Max Wind Speed 29 mph    
Max Gust Speed 41 mph    
Visibility 9 miles    
Events Rain , Snow    
T = Trace of Precipitation, MM = Missing Value Source: NWS Daily Summary

Daily Weather History Graph

Daily Weather History Graph

Search for Another Location

Airport or City:

Trip Planner

Search our weather history database for the weather conditions in past years. The results will help you decide how hot, cold, wet, or windy it might be!

Date:

Astronomy

Nov. 10, 2012 Rise Set
Actual Time 6:40 AM MST 4:56 PM MST
Civil Twilight 6:12 AM MST 5:23 PM MST
Nautical Twilight 5:41 AM MST 5:55 PM MST
Astronomical Twilight 5:10 AM MST 6:26 PM MST
Moon 2:51 AM MST 2:42 PM MST
Length of Visible Light 11h 11m
Length of Day
10h 15m
Waning Crescent, 14% of the Moon is Illuminated
Nov 10
Waning Crescent
Nov 13
New
Nov 20
First Quarter
Nov 28
Full
Dec 6
Last Quarter

Hourly Weather History & Observations

Time (MST) Temp. Windchill Dew Point Humidity Pressure Visibility Wind Dir Wind Speed Gust Speed Precip Events Conditions
12:15 AM 39.2 °F 30.8 °F 32.0 °F 75% 29.77 in 10.0 mi SW 15.0 mph 28.8 mph N/A Rain Light Rain
12:35 AM 41.0 °F 32.5 °F 30.2 °F 65% 29.78 in 10.0 mi SW 17.3 mph 32.2 mph N/A Rain Light Rain
12:55 AM 39.2 °F 31.6 °F 32.0 °F 75% 29.78 in 10.0 mi WSW 12.7 mph 21.9 mph N/A   Drizzle
1:15 AM 37.4 °F - 33.8 °F 87% 29.75 in 5.0 mi Calm Calm - 0.01 in Snow Light Snow
1:35 AM 35.6 °F 29.9 °F 32.0 °F 87% 29.74 in 10.0 mi East 6.9 mph - 0.01 in   Scattered Clouds
1:55 AM 35.6 °F 31.7 °F 32.0 °F 87% 29.73 in 10.0 mi SW 4.6 mph - 0.01 in Rain Rain
2:15 AM 37.4 °F 33.8 °F 32.0 °F 81% 29.71 in 10.0 mi West 4.6 mph - N/A Rain Light Rain
2:35 AM 37.4 °F 29.3 °F 32.0 °F 81% 29.73 in 5.0 mi SSW 12.7 mph 16.1 mph 0.01 in Snow Light Snow
2:55 AM 35.6 °F 32.8 °F 32.0 °F 87% 29.72 in 1.8 mi SSE 3.5 mph - 0.07 in Snow Light Snow
3:15 AM 35.6 °F 29.9 °F 33.8 °F 93% 29.69 in 7.0 mi South 6.9 mph - 0.01 in Snow Light Snow
3:34 AM 37.4 °F 29.8 °F 33.8 °F 87% 29.66 in 10.0 mi South 11.5 mph - 0.01 in   Mostly Cloudy
3:55 AM 37.4 °F 32.1 °F 32.0 °F 81% 29.66 in 10.0 mi South 6.9 mph - 0.01 in   Mostly Cloudy
4:15 AM 39.2 °F - 30.2 °F 70% 29.64 in 10.0 mi Calm Calm - N/A   Mostly Cloudy
4:35 AM 37.4 °F - 32.0 °F 81% 29.64 in 10.0 mi Calm Calm - N/A   Overcast
4:55 AM 37.4 °F - 30.2 °F 75% 29.63 in 10.0 mi Calm Calm - N/A   Overcast
5:15 AM 37.4 °F - 30.2 °F 75% 29.62 in 10.0 mi Calm Calm - N/A   Mostly Cloudy
5:35 AM 37.4 °F 33.8 °F 30.2 °F 75% 29.60 in 10.0 mi ESE 4.6 mph - N/A   Overcast
5:55 AM 39.2 °F 33.6 °F 30.2 °F 70% 29.60 in 10.0 mi SSW 8.1 mph - N/A   Overcast
6:15 AM 37.4 °F 32.8 °F 32.0 °F 81% 29.60 in 10.0 mi NW 5.8 mph - N/A   Overcast
6:35 AM 37.4 °F 33.8 °F 33.8 °F 87% 29.61 in 5.0 mi SW 4.6 mph - 0.01 in Snow Light Snow
6:55 AM 37.4 °F - 33.8 °F 87% 29.60 in 7.0 mi Calm Calm - 0.02 in Snow Light Snow
7:15 AM 35.6 °F 29.2 °F 32.0 °F 87% 29.60 in 5.0 mi SE 8.1 mph - N/A Rain Light Rain
7:35 AM 35.6 °F 31.7 °F 33.8 °F 93% 29.60 in 10.0 mi South 4.6 mph - N/A   Overcast
7:55 AM 37.4 °F - 35.6 °F 93% 29.62 in 10.0 mi Calm Calm - N/A   Overcast
8:15 AM 37.4 °F 34.9 °F 32.0 °F 81% 29.61 in 10.0 mi West 3.5 mph - N/A   Overcast
8:35 AM 37.4 °F - 32.0 °F 81% 29.61 in 10.0 mi Calm Calm - N/A   Scattered Clouds
8:55 AM 41.0 °F 36.4 °F 32.0 °F 70% 29.59 in 10.0 mi NNW 6.9 mph - N/A   Clear
9:15 AM 41.0 °F 39.0 °F 32.0 °F 70% 29.59 in 10.0 mi NW 3.5 mph - N/A   Clear
9:35 AM 42.8 °F 38.0 °F 35.6 °F 76% 29.59 in 10.0 mi SSE 8.1 mph - N/A   Clear
9:55 AM 42.8 °F 35.1 °F 33.8 °F 70% 29.60 in 10.0 mi South 16.1 mph 23.0 mph N/A   Mostly Cloudy
10:14 AM 39.2 °F 27.8 °F 30.2 °F 70% 29.62 in 4.0 mi WNW 27.6 mph 35.7 mph N/A   Unknown
10:35 AM 41.0 °F 31.9 °F 28.4 °F 61% 29.62 in 10.0 mi NW 19.6 mph 28.8 mph N/A   Mostly Cloudy
10:55 AM 42.8 °F 35.8 °F 28.4 °F 57% 29.64 in 10.0 mi NW 13.8 mph 21.9 mph N/A   Scattered Clouds
11:15 AM 42.8 °F 34.0 °F 24.8 °F 49% 29.64 in 10.0 mi WNW 20.7 mph 25.3 mph N/A   Scattered Clouds
11:34 AM 41.0 °F 32.2 °F 21.2 °F 45% 29.64 in 10.0 mi WNW 18.4 mph 28.8 mph N/A   Clear
11:55 AM 41.0 °F 32.8 °F 19.4 °F 42% 29.64 in 10.0 mi West 16.1 mph 21.9 mph N/A   Clear
12:15 PM 41.0 °F 30.0 °F 14.0 °F 33% 29.64 in 10.0 mi West 28.8 mph 41.4 mph N/A   Clear
12:35 PM 37.4 °F 26.4 °F 10.4 °F 33% 29.64 in 10.0 mi WNW 23.0 mph 34.5 mph N/A   Clear
12:55 PM 37.4 °F 27.8 °F 8.6 °F 30% 29.65 in 10.0 mi WNW 17.3 mph 41.4 mph N/A   Clear
1:15 PM 37.4 °F 27.2 °F 6.8 °F 28% 29.64 in 10.0 mi West 19.6 mph 41.4 mph N/A   Clear
1:35 PM 37.4 °F 26.9 °F 8.6 °F 30% 29.63 in 10.0 mi West 20.7 mph 28.8 mph N/A   Clear
1:54 PM 37.4 °F 26.6 °F 8.6 °F 30% 29.63 in 10.0 mi West 21.9 mph 34.5 mph N/A   Clear
2:15 PM 37.4 °F 26.9 °F 8.6 °F 30% 29.63 in 10.0 mi West 20.7 mph 31.1 mph N/A   Clear
2:35 PM 37.4 °F 26.9 °F 8.6 °F 30% 29.65 in 10.0 mi West 20.7 mph 29.9 mph N/A   Clear
2:55 PM 37.4 °F 26.9 °F 6.8 °F 28% 29.66 in 10.0 mi WNW 20.7 mph 25.3 mph N/A   Clear
3:15 PM 35.6 °F 23.7 °F 6.8 °F 30% 29.67 in 10.0 mi WNW 24.2 mph 31.1 mph N/A   Clear
3:35 PM 35.6 °F 25.5 °F 6.8 °F 30% 29.67 in 10.0 mi West 17.3 mph 23.0 mph N/A   Clear
3:54 PM 33.8 °F 23.2 °F 5.0 °F 30% 29.67 in 10.0 mi WNW 17.3 mph 25.3 mph N/A   Clear
4:15 PM 33.8 °F 23.2 °F 6.8 °F 32% 29.68 in 10.0 mi WNW 17.3 mph 20.7 mph N/A   Clear
4:35 PM 33.8 °F 23.2 °F 8.6 °F 35% 29.69 in 10.0 mi West 17.3 mph 21.9 mph N/A   Clear
4:55 PM 30.2 °F 18.1 °F 8.6 °F 40% 29.69 in 10.0 mi West 18.4 mph - N/A   Clear
5:15 PM 28.4 °F 15.8 °F 8.6 °F 43% 29.70 in 10.0 mi West 18.4 mph 23.0 mph N/A   Clear
5:35 PM 28.4 °F 17.0 °F 8.6 °F 43% 29.71 in 10.0 mi West 15.0 mph - N/A   Clear
5:55 PM 26.6 °F 15.2 °F 6.8 °F 43% 29.72 in 10.0 mi West 13.8 mph - N/A   Clear
6:15 PM 26.6 °F 15.7 °F 6.8 °F 43% 29.73 in 10.0 mi West 12.7 mph - N/A   Clear
6:34 PM 26.6 °F 15.2 °F 6.8 °F 43% 29.74 in 10.0 mi West 13.8 mph - N/A   Clear
6:55 PM 24.8 °F 16.1 °F 8.6 °F 50% 29.74 in 10.0 mi NNW 8.1 mph - N/A   Clear
7:15 PM 23.0 °F 11.7 °F 10.4 °F 59% 29.75 in 10.0 mi North 11.5 mph - N/A   Clear
7:35 PM 24.8 °F 15.3 °F 8.6 °F 50% 29.76 in 10.0 mi NNW 9.2 mph - N/A   Clear
7:55 PM 24.8 °F 14.6 °F 8.6 °F 50% 29.76 in 10.0 mi NNW 10.4 mph - N/A   Clear
8:15 PM 23.0 °F 13.1 °F 8.6 °F 54% 29.76 in 10.0 mi NNW 9.2 mph - N/A   Clear
8:35 PM 23.0 °F 13.9 °F 8.6 °F 54% 29.77 in 10.0 mi NNW 8.1 mph - N/A   Clear
9:14 PM 23.0 °F - 5.0 °F 46% 29.78 in 10.0 mi Calm Calm - N/A   Clear
9:35 PM 21.2 °F - 3.2 °F 46% 29.78 in 10.0 mi Calm Calm - N/A   Clear
9:55 PM 21.2 °F 10.9 °F 6.8 °F 54% 29.78 in 10.0 mi NW 9.2 mph - N/A   Clear
10:15 PM 19.4 °F 9.5 °F 5.0 °F 54% 29.78 in 10.0 mi NW 8.1 mph - N/A   Clear
10:35 PM 21.2 °F 11.7 °F 5.0 °F 50% 29.77 in 10.0 mi NW 8.1 mph - N/A   Clear
10:55 PM 21.2 °F 11.7 °F 5.0 °F 50% 29.78 in 10.0 mi NW 8.1 mph - N/A   Clear
11:15 PM 19.4 °F 7.9 °F 3.2 °F 49% 29.78 in 10.0 mi NW 10.4 mph - N/A   Clear
11:35 PM 21.2 °F 10.9 °F 1.4 °F 42% 29.78 in 10.0 mi NW 9.2 mph - N/A   Clear
11:55 PM 19.4 °F 10.4 °F 3.2 °F 49% 29.78 in 10.0 mi NW 6.9 mph - N/A   Clear